User: anonymous   Login
Location: Newark
(22.3000°N, 114.2000°E)
Time: 17:37:31
(UTC+00:00)
Language:

Hubble Space Telescope - Orbit

View from above orbital plane
View from above orbital plane
View from above satellite
View from above satellite

Ground track
Ground track

The orbit data is extracted from the following two-line orbital elements,

1 20580U 90037B   19317.42274170 +.00000464 +00000-0 +17299-4 0  9998
2 20580 028.4703 315.0269 0002427 275.4253 234.9025 15.09297665423149
Epoch (UTC): 13 November 2019 10:08:44
Eccentricity: 0.0002427
inclination: 28.4703°
perigee height: 536 km
apogee height: 540 km
right ascension of ascending node: 315.0269°
argument of perigee: 275.4253°
revolutions per day: 15.09297665
mean anomaly at epoch: 234.9025°
orbit number at epoch: 42314

The dashed part of the orbit path shows where the satellite is in the earth's shadow,  

DLR